Weather History for Burns, OR

Change the Weather History Date:

Monday, December 2, 2013

  Actual Average Record
Temperature  
Mean Temperature 34 °F 27 °F  
Max Temperature 49 °F 37 °F 61 °F (1975)
Min Temperature 19 °F 17 °F -2 °F (2006)
Degree Days  
Heating Degree Days 31 38  
Month to date heating degree days 54 76  
Since 1 July heating degree days 1977 2077  
Cooling Degree Days 0 0  
Month to date cooling degree days 0 0  
Year to date cooling degree days 372 215  
Moisture  
Dew Point 29 °F    
Average Humidity 69    
Maximum Humidity 85    
Minimum Humidity 53    
Precipitation  
Precipitation 0.01 in 0.05 in 0.44 in (1962)
Month to date precipitation 0.01 0.10  
Year to date precipitation 6.70 9.47  
Sea Level Pressure  
Sea Level Pressure 29.82 in    
Wind  
Wind Speed 17 mph (WSW)    
Max Wind Speed 37 mph    
Max Gust Speed 48 mph    
Visibility 10 miles    
Events Rain , Snow    
T = Trace of Precipitation, MM = Missing Value Source: NWS Daily Summary

Daily Weather History Graph

Daily Weather History Graph

Search for Another Location

Airport:

Trip Planner

Search our weather history database for the weather conditions in past years. The results will help you decide how hot, cold, wet, or windy it might be!

Date:

Astronomy

Dec. 02, 2013 Rise Set
Actual Time 7:10 AM PST 4:19 PM PST
Civil Twilight 6:38 AM PST 4:52 PM PST
Nautical Twilight 6:02 AM PST 5:27 PM PST
Astronomical Twilight 5:28 AM PST 6:02 PM PST
Moon 6:40 AM PST (12/2) 4:28 PM PST (12/2)
Length of Visible Light 10h 13m
Length of Day
9h 09m
Waning Crescent, 0% of the Moon is Illuminated
Dec 2
Waning Crescent
Dec 2
New
Dec 9
First Quarter
Dec 17
Full
Dec 25
Last Quarter

Hourly Weather History & Observations

Time (PST) Temp. Windchill Dew Point Humidity Pressure Visibility Wind Dir Wind Speed Gust Speed Precip Events Conditions
12:53 AM 46.0 °F 38.8 °F 30.0 °F 54% 29.92 in 10.0 mi SW 18.4 mph 25.3 mph N/A   Scattered Clouds
1:53 AM 46.0 °F 41.0 °F 30.9 °F 56% 29.91 in 10.0 mi SW 10.4 mph - N/A   Overcast
2:53 AM 46.9 °F - 33.1 °F 59% 29.88 in 10.0 mi SW 23.0 mph 32.2 mph N/A   Overcast
3:53 AM 45.0 °F 37.9 °F 33.1 °F 63% 29.87 in 10.0 mi SW 16.1 mph - N/A   Overcast
4:53 AM 44.1 °F 37.4 °F 34.0 °F 68% 29.86 in 10.0 mi SSW 13.8 mph 24.2 mph N/A   Mostly Cloudy
5:53 AM 43.0 °F 35.4 °F 35.1 °F 74% 29.85 in 10.0 mi SSW 16.1 mph - N/A   Mostly Cloudy
6:46 AM 43.0 °F 36.0 °F 35.1 °F 74% 29.85 in 10.0 mi SSW 13.8 mph - N/A   Overcast
6:53 AM 43.0 °F 36.0 °F 35.1 °F 74% 29.83 in 10.0 mi SSW 13.8 mph - N/A   Overcast
7:16 AM 43.0 °F 35.1 °F 35.1 °F 74% 29.82 in 10.0 mi SW 17.3 mph 25.3 mph N/A   Overcast
7:53 AM 43.0 °F 35.1 °F 34.0 °F 71% 29.81 in 10.0 mi SW 17.3 mph 33.4 mph N/A   Mostly Cloudy
8:53 AM 46.0 °F 39.3 °F 34.0 °F 63% 29.77 in 10.0 mi SW 16.1 mph 34.5 mph N/A   Overcast
9:53 AM 46.9 °F - 34.0 °F 61% 29.76 in 10.0 mi WSW 27.6 mph 48.3 mph N/A   Overcast
10:53 AM 46.9 °F - 35.1 °F 63% 29.75 in 10.0 mi SW 23.0 mph 38.0 mph N/A   Overcast
11:44 AM 46.0 °F 37.6 °F 37.9 °F 73% 29.72 in 10.0 mi WSW 24.2 mph 36.8 mph 0.00 in Rain Light Rain
11:53 AM 45.0 °F 36.0 °F 36.0 °F 71% 29.71 in 10.0 mi WSW 25.3 mph 32.2 mph 0.00 in   Mostly Cloudy
12:53 PM 45.0 °F 35.4 °F 35.1 °F 68% 29.68 in 10.0 mi SW 28.8 mph 41.4 mph 0.00 in   Overcast
1:31 PM 39.9 °F 30.8 °F 37.0 °F 89% 29.71 in 5.0 mi West 18.4 mph 27.6 mph 0.01 in Rain Light Rain
1:53 PM 37.0 °F 25.1 °F 34.0 °F 89% 29.73 in 10.0 mi West 26.5 mph 36.8 mph 0.01 in   Overcast
2:18 PM 37.0 °F 25.4 °F 32.0 °F 82% 29.74 in 7.0 mi West 25.3 mph 32.2 mph 0.00 in Snow Light Snow
2:29 PM 37.0 °F 26.2 °F 28.9 °F 73% 29.74 in 7.0 mi West 21.9 mph 32.2 mph 0.00 in Snow Light Snow
2:53 PM 36.0 °F - 28.0 °F 73% 29.76 in 10.0 mi North - - 0.00 in   Overcast
3:53 PM 34.0 °F 21.8 °F 24.1 °F 67% 29.80 in 10.0 mi West 23.0 mph 34.5 mph 0.00 in   Overcast
4:53 PM 30.0 °F 21.7 °F 21.9 °F 72% 29.85 in 10.0 mi WNW 9.2 mph - N/A   Partly Cloudy
5:53 PM 30.0 °F 17.2 °F 17.1 °F 59% 29.86 in 10.0 mi West 20.7 mph 31.1 mph N/A   Partly Cloudy
6:53 PM 28.0 °F 18.1 °F 18.0 °F 66% 29.88 in 10.0 mi West 11.5 mph - N/A   Scattered Clouds
7:53 PM 26.1 °F 16.8 °F 17.1 °F 69% 29.89 in 10.0 mi WSW 9.2 mph - N/A   Clear
8:53 PM 19.9 °F 10.1 °F 15.1 °F 81% 29.91 in 10.0 mi WNW 8.1 mph - N/A   Clear
9:53 PM 24.1 °F 15.2 °F 18.0 °F 77% 29.89 in 10.0 mi WSW 8.1 mph - N/A   Mostly Cloudy
10:53 PM 21.9 °F 13.4 °F 17.1 °F 82% 29.90 in 10.0 mi West 6.9 mph - 0.00 in   Mostly Cloudy
11:53 PM 21.0 °F 16.2 °F 16.0 °F 81% 29.91 in 10.0 mi SSW 3.5 mph - N/A   Partly Cloudy